Погода в Саламе

Гватемала     15°10′41″N   90°12′14″W
темп.,
°C
ветер,
м/с
пор.,
м/с
влажн.,
%
обл.,
%
осадки,
мм/ч
давл.,
гПа
погр.,
м
5 марта, пт
пт500:00+11с119144 0.0 101724
03:00+10с11890 0.0 101622
06:00+10с11900 0.0 101622
09:00+21вюв11320 0.0 1016709
12:00+27в12190 0.0 10131463
15:00+26всв222519 0.0 10091537
18:00+17св226310 0.0 101154
21:00+13ссв11910 0.0 101527
6 марта, сб
сб600:00+12с11960 0.0 101523
03:00+12сз11960 0.0 101423
06:00+12ссз11970 0.0 101523
09:00+22ссз11490 0.0 1016776
12:00+26ссв22370 0.0 10141772
15:00+24ссв34507 0.0 10111484
18:00+18с247726 0.1 1013222
21:00+13с22961 0.0 101773
7 марта, вс
вс700:00+13с23993 0.3 1018100
03:00+14с239592 0.9 1017223
06:00+13с239772 1.3 1018214
09:00+17с247845 0.1 1020664
12:00+22ссв345239 0.4 10181382
15:00+21ссв345949 0.3 10161201
18:00+16с238438 0.6 1017262
21:00+13ссв239816 0.1 1020141
8 марта, пн
пн800:00+13ссв129841 0.2 1021142
03:00+14с139771 0.3 1020183
06:00+13ссв229975 0.6 1020160
09:00+15с128677 0.1 1022399
12:00+18ссв236877 0.4 1021896
15:00+19ссв246679 0.1 1018951
18:00+15ссв238687 0.3 1019331
21:00+14ссв1395100 0.2 1022214
9 марта, вт
вт900:00+13ссв1298100 1.8 1021155
03:00+14св1299100 1.1 1019167
06:00+14ссв1299100 1.4 1021169
09:00+14ссв1296100 0.4 1022259
12:00+18св237589 1.1 1020773
15:00+19св236797 0.3 1016938
18:00+15ссв238582 0.6 1018164
21:00+14ссв129797 0.8 1020185